Location: Red Deer
(52.2681°N, 113.8112°W)
Time: 19:28:55
(UTC-07:00)

N. Korean satellite - Pass Details

Date: 03 December 2022
Orbit: 407 x 442 km, 97.3° (Epoch: 05 February)

Event Time Altitude Azimuth Distance (km) Brightness Sun altitude
Rises 16:58:20 0° 169° (S) 2,453 10.4 -5.1°
Reaches altitude 10° 17:00:21 10° 171° (S) 1,595 9.5 -5.4°
Maximum altitude 17:03:46 74° 257° (WSW) 487 6.8 -5.8°
Drops below altitude 10° 17:07:17 10° 343° (NNW) 1,635 9.1 -6.3°
Sets 17:09:22 0° 346° (NNW) 2,522 10.1 -6.6°
